User: anonymous   Login
Location: Moonridge Observatory
(39.2268°N, 77.7914°W)
Time: 21:37:40
(UTC-04:00)
Language:

CZ-2C R/B - Orbit

View from above orbital plane
View from above orbital plane
View from above satellite
View from above satellite

Ground track
Ground track

The orbit data is extracted from the following two-line orbital elements,

1 28480U 04046B   16271.89966943  .00000043  00000-0  32367-4 0  9999
2 28480  98.1907  19.0652 0140845 278.6790 188.0753 14.25608204616863
Epoch (UTC): 27 September 2016 21:35:31
Eccentricity: 0.0140845
inclination: 98.1907°
perigee height: 705 km
apogee height: 907 km
right ascension of ascending node: 19.0652°
argument of perigee: 278.6790°
revolutions per day: 14.25608204
mean anomaly at epoch: 188.0753°
orbit number at epoch: 61686

The dashed part of the orbit path shows where the satellite is in the earth's shadow,  

DLR